Home   Weather   USA   Binghamton   Past weeks
Flag for USA

Past Weather in Binghamton, New York, USA — Yesterday and Last 2 Weeks

Currently: 45 °F. Fog. (Weather station: Binghamton Regional Airport, USA). See more current weather

Past Weather in Binghamton — Graph

°F

Binghamton Temperature Yesterday

Maximum temperature yesterday: 59 °F (at 11:53 am)
Minimum temperature yesterday: 39 °F (at 6:53 am)
Average temperature yesterday: 50 °F

High & Low Weather Summary for the Past Weeks

 TemperatureHumidityPressure
High73 °F (Apr 9, 3:53 pm)97% (Apr 4, 12:53 am)30.19 "Hg (Apr 4, 12:53 am)
Low31 °F (Apr 5, 12:53 am)20% (Apr 8, 1:53 pm)29.15 "Hg (Apr 12, 5:53 am)
Average47 °F73%29.79 "Hg
* Reported Apr 3 8:08 pm — Apr 18 8:53 pm, Binghamton. Weather by CustomWeather, © 2024

Note: Actual official high and low records may vary slightly from our data, if they occured in-between our weather recording intervals... More about our weather records

Binghamton Weather History for the Previous 24 Hours

Scroll right to see more
 ConditionsComfort  
Time TempWeatherWind HumidityBarometerVisibility
8:53 pm
Thu, Apr 18
46 °FLight rain. Fog.8 mph93%30.11 "Hg3 mi
8:34 pm46 °FLight rain. Fog.6 mph93%30.09 "Hg4 mi
7:53 pm47 °FLow clouds.8 mph90%30.09 "Hg10 mi
7:27 pm47 °FLow clouds.7 mph93%30.06 "Hg10 mi
6:53 pm48 °FLow clouds.7 mph93%30.07 "Hg10 mi
6:37 pm48 °FLow clouds.7 mph89%30.06 "Hg10 mi
6:04 pm48 °FMostly cloudy.7 mph93%30.06 "Hg10 mi
5:53 pm48 °FLow clouds.7 mph89%30.07 "Hg10 mi
5:35 pm48 °FMostly cloudy.7 mph93%30.05 "Hg10 mi
4:53 pm49 °FLow clouds.7 mph86%30.05 "Hg10 mi
3:53 pm50 °FLow clouds.10 mph86%30.03 "Hg10 mi
3:19 pm50 °FLow clouds.12 mph89%30.01 "Hg10 mi
2:53 pm49 °FLow clouds.9 mph93%30.03 "Hg10 mi
2:05 pm49 °FLight rain. Fog.12 mph90%30.03 "Hg3 mi
12:53 pm50 °FLow clouds.6 mph86%30.04 "Hg10 mi
12:26 pm49 °FLow clouds.9 mph90%30.02 "Hg10 mi
11:53 am48 °FLow clouds.10 mph89%30.02 "Hg10 mi
10:53 am47 °FLow clouds.13 mph93%30.01 "Hg8 mi
9:53 am47 °FLight rain. Fog.12 mph93%29.99 "Hg4 mi
8:53 am47 °FLight rain. Fog.9 mph93%29.98 "Hg6 mi
8:37 am47 °FLight rain. Fog.12 mph93%29.96 "Hg2 mi
8:06 am47 °FLight rain. Fog.9 mph93%29.95 "Hg1 mi
7:30 am47 °FFog.10 mph93%29.95 "Hg2 mi
7:09 am47 °FFog.8 mph97%29.93 "Hg1 mi
6:53 am47 °FFog.10 mph97%29.94 "Hg1 mi
6:23 am48 °FFog.10 mph93%29.91 "Hg0 mi
5:53 am48 °FFog.8 mph93%29.91 "Hg1 mi
5:40 am48 °FFog.10 mph93%29.90 "Hg1 mi
4:53 am49 °FLow clouds.9 mph93%29.90 "Hg7 mi
3:53 am48 °FFog.9 mph96%29.89 "Hg5 mi
2:53 am48 °FLow clouds.10 mph93%29.87 "Hg10 mi
2:07 am47 °FLight rain. Fog.14 mph93%29.87 "Hg5 mi
1:11 am48 °FLight rain. Overcast.14 mph89%29.90 "Hg7 mi
12:53 am48 °FLight rain. Fog.12 mph89%29.92 "Hg6 mi
12:07 am49 °FMostly cloudy.7 mph86%29.92 "Hg10 mi
11:53 pm
Wed, Apr 17
49 °FOvercast.8 mph86%29.92 "Hg10 mi
10:53 pm49 °FOvercast.13 mph86%29.92 "Hg10 mi
10:34 pm49 °FOvercast.14 mph86%29.93 "Hg10 mi
10:02 pm49 °FPassing clouds.10 mph90%29.95 "Hg10 mi
Weather by CustomWeather, © 2024

See weather overview